TimeMDT,TemperatureF,Dew PointF,Humidity,Sea Level PressureIn,VisibilityMPH,Wind Direction,Wind SpeedMPH,Gust SpeedMPH,PrecipitationIn,Events,Conditions,WindDirDegrees,DateUTC
12:15 AM,47.3,43.9,88,30.08,10.0,NNW,12.7,-,N/A,,Clear,340,2013-05-09 06:15:00
12:35 AM,46.9,43.9,89,30.08,10.0,NNW,12.7,-,N/A,,Clear,330,2013-05-09 06:35:00
12:55 AM,47.3,43.7,87,30.09,10.0,NNW,11.5,-,N/A,,Scattered Clouds,340,2013-05-09 06:55:00
1:15 AM,47.3,43.7,87,30.08,10.0,NNW,11.5,-,N/A,,Scattered Clouds,340,2013-05-09 07:15:00
2:35 AM,47.3,42.3,83,30.07,10.0,North,11.5,-,N/A,,Scattered Clouds,360,2013-05-09 08:35:00
3:35 AM,46.8,42.1,84,30.08,10.0,North,11.5,-,N/A,,Scattered Clouds,360,2013-05-09 09:35:00
3:55 AM,46.6,42.1,84,30.09,10.0,North,9.2,-,N/A,,Mostly Cloudy,10,2013-05-09 09:55:00
4:15 AM,45.9,41.9,86,30.09,10.0,North,9.2,-,N/A,,Mostly Cloudy,360,2013-05-09 10:15:00
4:35 AM,46.4,41.9,84,30.09,10.0,North,9.2,-,N/A,,Mostly Cloudy,360,2013-05-09 10:35:00
4:55 AM,46.6,42.1,84,30.09,10.0,North,8.1,-,N/A,,Overcast,10,2013-05-09 10:55:00
5:15 AM,45.9,41.9,86,30.09,10.0,North,8.1,-,N/A,,Mostly Cloudy,360,2013-05-09 11:15:00
5:55 AM,45.1,41.2,86,30.11,10.0,North,9.2,-,N/A,,Scattered Clouds,360,2013-05-09 11:55:00
6:15 AM,45.5,41.4,85,30.11,10.0,North,10.4,-,N/A,,Scattered Clouds,360,2013-05-09 12:15:00
7:35 AM,50.0,43.7,79,30.14,10.0,North,9.2,-,N/A,,Mostly Cloudy,360,2013-05-09 13:35:00
8:15 AM,53.6,44.1,70,30.15,10.0,NNE,10.4,-,N/A,,Scattered Clouds,30,2013-05-09 14:15:00
8:35 AM,53.8,45.1,73,30.16,10.0,NE,11.5,-,N/A,,Scattered Clouds,40,2013-05-09 14:35:00
8:55 AM,53.1,45.0,74,30.17,10.0,NE,12.7,-,N/A,,Mostly Cloudy,40,2013-05-09 14:55:00
9:35 AM,56.1,44.8,66,30.17,10.0,NE,11.5,-,N/A,,Mostly Cloudy,40,2013-05-09 15:35:00
9:55 AM,57.2,45.1,64,30.17,10.0,NE,11.5,-,N/A,,Mostly Cloudy,50,2013-05-09 15:55:00
10:15 AM,56.7,45.1,65,30.18,10.0,NE,11.5,17.3,N/A,,Mostly Cloudy,50,2013-05-09 16:15:00
10:35 AM,55.9,44.8,66,30.18,10.0,NE,12.7,16.1,N/A,,Mostly Cloudy,40,2013-05-09 16:35:00
11:15 AM,59.4,43.3,55,30.18,10.0,NNE,15.0,20.7,N/A,,Scattered Clouds,30,2013-05-09 17:15:00
11:35 AM,60.6,42.1,50,30.17,10.0,NNE,13.8,-,N/A,,Scattered Clouds,30,2013-05-09 17:35:00
11:55 AM,61.5,39.4,44,30.17,10.0,NE,15.0,23.0,N/A,,Scattered Clouds,40,2013-05-09 17:55:00
12:15 PM,63.3,38.1,39,30.16,10.0,NNE,17.3,23.0,N/A,,Scattered Clouds,30,2013-05-09 18:15:00
12:35 PM,61.5,38.5,43,30.16,10.0,NE,11.5,21.9,N/A,,Scattered Clouds,40,2013-05-09 18:35:00
12:55 PM,63.9,36.9,37,30.15,10.0,NE,19.6,25.3,N/A,,Scattered Clouds,50,2013-05-09 18:55:00
1:35 PM,65.3,36.3,34,30.15,10.0,ENE,12.7,18.4,N/A,,Scattered Clouds,60,2013-05-09 19:35:00
1:55 PM,65.5,38.1,36,30.15,10.0,East,17.3,20.7,N/A,Thunderstorm,Scattered Clouds,80,2013-05-09 19:55:00
2:15 PM,64.4,37.9,38,30.15,10.0,NE,12.7,20.7,N/A,,Scattered Clouds,40,2013-05-09 20:15:00
2:35 PM,65.1,35.4,33,30.14,10.0,ENE,15.0,20.7,N/A,,Scattered Clouds,60,2013-05-09 20:35:00
2:55 PM,64.0,36.0,35,30.14,10.0,NE,13.8,19.6,N/A,,Mostly Cloudy,40,2013-05-09 20:55:00
3:15 PM,63.1,37.4,39,30.14,10.0,ENE,18.4,27.6,N/A,,Scattered Clouds,70,2013-05-09 21:15:00
3:35 PM,64.6,37.9,37,30.14,10.0,NE,12.7,21.9,N/A,,Scattered Clouds,50,2013-05-09 21:35:00
3:55 PM,64.6,38.5,38,30.14,10.0,East,15.0,-,N/A,,Scattered Clouds,80,2013-05-09 21:55:00
4:15 PM,64.8,35.6,34,30.13,10.0,NE,12.7,19.6,N/A,,Clear,50,2013-05-09 22:15:00
4:35 PM,64.6,36.0,35,30.13,10.0,NE,13.8,18.4,N/A,,Clear,50,2013-05-09 22:35:00
4:55 PM,64.6,36.0,35,30.14,10.0,NE,4.6,-,N/A,Thunderstorm,Thunderstorm,50,2013-05-09 22:55:00
5:15 PM,64.4,34.3,33,30.14,10.0,NE,12.7,17.3,N/A,Thunderstorm,Thunderstorm,50,2013-05-09 23:15:00
5:35 PM,62.8,35.4,36,30.14,10.0,NE,10.4,-,N/A,,Mostly Cloudy,50,2013-05-09 23:35:00
5:55 PM,62.1,36.9,39,30.14,10.0,East,6.9,-,N/A,,Scattered Clouds,80,2013-05-09 23:55:00
6:15 PM,63.5,36.9,37,30.14,10.0,East,8.1,-,N/A,,Mostly Cloudy,90,2013-05-10 00:15:00
6:35 PM,62.6,32.5,32,30.14,10.0,NE,10.4,-,N/A,,Overcast,50,2013-05-10 00:35:00
6:55 PM,61.2,32.7,34,30.15,10.0,ENE,9.2,-,N/A,,Overcast,70,2013-05-10 00:55:00
7:15 PM,60.1,37.0,42,30.15,10.0,East,9.2,-,N/A,,Mostly Cloudy,90,2013-05-10 01:15:00
7:35 PM,56.8,37.8,49,30.15,10.0,East,5.8,-,N/A,,Scattered Clouds,80,2013-05-10 01:35:00
7:55 PM,54.5,38.5,55,30.16,10.0,Calm,Calm,-,N/A,,Clear,0,2013-05-10 01:55:00
8:15 PM,54.5,38.7,55,30.16,10.0,Calm,Calm,-,N/A,,Scattered Clouds,0,2013-05-10 02:15:00
8:35 PM,54.5,37.9,54,30.17,10.0,East,3.5,-,N/A,,Scattered Clouds,80,2013-05-10 02:35:00
8:55 PM,53.4,38.5,57,30.18,10.0,Calm,Calm,-,N/A,,Clear,0,2013-05-10 02:55:00
9:15 PM,52.0,38.1,59,30.19,10.0,Calm,Calm,-,N/A,,Scattered Clouds,0,2013-05-10 03:15:00
9:35 PM,51.3,38.5,62,30.19,10.0,Calm,Calm,-,N/A,,Scattered Clouds,0,2013-05-10 03:35:00
9:55 PM,52.2,38.8,60,30.20,10.0,WSW,3.5,-,N/A,,Scattered Clouds,250,2013-05-10 03:55:00
10:15 PM,49.6,40.3,70,30.20,10.0,SW,4.6,-,N/A,,Mostly Cloudy,220,2013-05-10 04:15:00
10:35 PM,50.2,41.9,73,30.19,10.0,West,3.5,-,N/A,,Scattered Clouds,280,2013-05-10 04:35:00
11:15 PM,46.9,41.7,82,30.19,10.0,NW,5.8,-,N/A,,Clear,320,2013-05-10 05:15:00
11:55 PM,46.0,41.0,83,30.19,10.0,NNW,10.4,-,N/A,,Clear,340,2013-05-10 05:55:00